Regional Weather Roundup
Issued by NWS

Home | Current Version | Previous Version | Graphics & Text | Print | Product List | Glossary On
Versions: 1 2 3 4 5 6 7 8 9 10 11 12 13 14 15 16 17 18 19 20 21 22 23 24 25 26 27 28 29 30 31 32 33 34 35 36 37 38 39 40 41 42 43 44 45 46 47 48 49 50
000
ASUS45 KCYS 182210
RWRWY

WYOMING REGIONAL WEATHER ROUNDUP
NATIONAL WEATHER SERVICE CHEYENNE WY
400 PM MDT THU SEP 18 2014

NOTE:  "FAIR" INDICATES FEW OR NO CLOUDS BELOW 12,000 FEET
WITH NO SIGNIFICANT WEATHER AND/OR OBSTRUCTIONS TO VISIBILITY.

WYZ001-182300-
YELLOWSTONE NATIONAL PARK

CITY           SKY/WX    TMP DP  RH WIND       PRES   REMARKS
LK YELLOWSTONE   N/A     59  49  69 VRB3      30.08F
W YELLOWSTONE  NOT AVBL

$$
WYZ002>013-054>058-071-098>099-182300-
NORTHERN WYOMING

CITY           SKY/WX    TMP DP  RH WIND       PRES   REMARKS
JACKSON        CLOUDY    63  54  72 N12       30.00R
CODY             N/A    N/A N/A N/A MISG        N/A
GREYBULL       MOSUNNY   84  42  22 N5        29.78F
WORLAND        SUNNY     81  45  28 N10       29.79F
SHERIDAN       PTSUNNY   82  49  31 NE3       29.82F
BUFFALO        PTSUNNY   78  49  35 N16       29.89S
GILLETTE       MOSUNNY   86  47  25 N9        29.81F
HULETT         FAIR      86  50  28 MISG      29.82
NEWCASTLE      FAIR      90  37  15 S9        29.81

$$
WYZ014>020-022>026-101>103-182300-
CENTRAL WYOMING

CITY           SKY/WX    TMP DP  RH WIND       PRES   REMARKS
BIG PINEY      PTSUNNY   78  39  24 W10       30.01F
PINEDALE       MOCLDY    77  34  20 S13G21    30.01F
DUBOIS         MOCLDY    77  36  22 N12       29.98F
LANDER         SUNNY     88  29  12 S13G28    29.85F
RIVERTON       MOSUNNY   87  35  15 SE5       29.87F
CASPER         SUNNY     90  29  11 W12       29.88F
DOUGLAS        SUNNY     91  33  12 SW8       29.87F

$$
WYZ021-027>030-104>119-182300-
SOUTHERN WYOMING

CITY           SKY/WX    TMP DP  RH WIND       PRES   REMARKS
EVANSTON       MOSUNNY   81  37  20 W21       30.02F
KEMMERER       PTCLDY    79  34  19 SW14G24   30.03F
FORT BRIDGER   FAIR      84  35  17 SW12G23   30.04F
ROCK SPRINGS   PTSUNNY   82  33  17 VRB6      30.00F
DIXON          FAIR      84  32  15 SW12G17   30.05F
RAWLINS        SUNNY     83  26  12 SW15G24   30.04F
SARATOGA       FAIR      81  34  18 NW8       30.06F
LARAMIE        SUNNY     80  28  15 S6        30.07F
CHEYENNE       SUNNY     85  28  12 S16       30.01F
TORRINGTON     MOSUNNY   90  47  22 SE8       29.84F
PINE BLUFFS    FAIR      88  30  12 W6        29.94F

$$


USA.gov is the U.S. government's official web portal to all federal, state and local government web resources and services.